CW0003 Weather Reports


Display with metric or nautical units.
time (UTC)temp
F
wind
direction
speed
MPH
gust
MPH
rain 1hr
in
rain 24hr
in
rain mn
in
humidity
%
barometer
mb
20200220080135 23 0.0 0.0 0.00 0.00 0.00 57 1026.1
20200220074706 23 0.0 0.0 0.00 0.00 0.00 61 1026.2
20200220073112 23 0.0 0.0 0.00 0.00 0.00 58 1025.9
20200220071657 24 0.0 0.0 0.00 0.00 0.00 57 1025.9
20200220070122 24 0.0 0.0 0.00 0.00 0.00 56 1025.8
20200220064532 25 0.0 0.0 0.00 0.00 0.00 53 1025.9
20200220063107 25 0.0 0.0 0.00 0.00 0.00 53 1025.8
20200220061532 26 0.0 0.0 0.00 0.00 0.00 51 1025.8
20200220060013 26 0.0 0.0 0.00 0.00 0.00 50 1025.6
20200220054520 26 0.0 0.0 0.00 0.00 0.00 50 1025.8
20200220053216 27 0.0 0.0 0.00 0.00 0.00 49 1025.5
20200220051605 27 0.0 0.0 0.00 0.00 0.00 50 1025.4
20200220050135 27 0.0 0.0 0.00 0.00 0.00 50 1025.2
20200220044737 28 0.0 0.0 0.00 0.00 0.00 51 1025.2
20200220043110 28 0.0 0.0 0.00 0.00 0.00 51 1025.1
20200220041701 28 0.0 0.0 0.00 0.00 0.00 50 1024.8
20200220040033 29 0.0 0.0 0.00 0.00 0.00 49 1024.6
20200220034520 29 0.0 0.0 0.00 0.00 0.00 50 1024.6
20200220033040 29 0.0 0.0 0.00 0.00 0.00 50 1024.4
20200220031519 29 0.0 0.0 0.00 0.00 0.00 50 1024.3
20200220030230 29 0.0 0.0 0.00 0.00 0.00 50 1024.0
20200220024639 29 0.0 0.0 0.00 0.02 0.00 52 1024.0
20200220023055 28 0.0 0.0 0.00 0.02 0.00 54 1023.9
20200220021619 28 0.0 0.0 0.00 0.02 0.00 57 1023.8
20200220020049 28 0.0 0.0 0.00 0.02 0.00 61 1023.7
20200220014628 28 0.0 0.0 0.00 0.07 0.00 62 1023.6
20200220013100 28 0.0 0.0 0.00 0.07 0.00 59 1023.5
20200220011529 29 0.0 0.0 0.00 0.07 0.00 58 1023.2
20200220010013 29 0.0 0.0 0.00 0.07 0.00 55 1023.0
20200220004511 30 0.0 0.0 0.00 0.15 0.00 52 1022.7
20200220003137 30 0.0 0.0 0.00 0.15 0.00 52 1022.7
20200220001646 31 0.0 0.0 0.00 0.15 0.00 48 1022.4
20200220000151 31 0.0 0.0 0.00 0.15 0.00 47 1022.1
20200219234606 31 0.0 0.0 0.00 0.20 0.00 47 1022.2
20200219233054 32 0.0 0.0 0.00 0.20 0.00 49 1021.9
20200219231603 33 0.0 0.0 0.00 0.20 0.00 46 1021.8
20200219230027 34 0.0 0.0 0.00 0.20 0.00 43 1021.4
20200219224536 35 0.0 0.0 0.00 0.26 0.00 39 1021.2
20200219223002 35 0.0 0.0 0.00 0.26 0.00 37 1020.9
20200219221859 36 0.0 0.0 0.00 0.26 0.00 36 1020.6
20200219220121 36 0.0 0.0 0.00 0.26 0.00 36 1020.6
20200219214606 37 238 5.0 11.0 0.00 0.30 0.00 35 1020.2
20200219213107 37 159 5.0 11.0 0.00 0.30 0.00 34 1020.0
20200219211603 37 214 9.0 23.0 0.00 0.30 0.00 34 1019.9
20200219210042 38 196 8.0 18.0 0.00 0.30 0.00 33 1019.6
20200219204642 38 189 4.0 19.0 0.00 0.31 0.00 37 1019.3
20200219203038 38 5 6.0 17.0 0.00 0.31 0.00 33 1019.1
20200219201540 39 208 7.0 20.0 0.00 0.31 0.00 36 1019.2
20200219200112 39 217 8.0 15.0 0.00 0.31 0.00 38 1018.7
20200219194548 39 219 8.0 19.0 0.00 0.33 0.00 37 1018.5
20200219193011 40 360 8.0 26.0 0.00 0.33 0.00 39 1018.2
20200219191511 40 218 4.0 19.0 0.00 0.33 0.00 42 1018.0
20200219184627 40 248 6.0 19.0 0.00 0.34 0.00 46 1017.7
20200219183132 40 212 5.0 22.0 0.00 0.34 0.00 45 1017.3
20200219181640 40 240 6.0 18.0 0.00 0.34 0.00 44 1017.4
20200219180133 41 240 10.0 23.0 0.00 0.34 0.00 45 1017.5
20200219174619 40 225 7.0 22.0 0.00 0.38 0.00 45 1017.3
20200219173125 40 15 6.0 22.0 0.00 0.38 0.00 44 1017.2
20200219171648 41 242 8.0 21.0 0.00 0.38 0.00 49 1017.1
20200219170047 41 239 7.0 20.0 0.00 0.38 0.00 49 1017.1
20200219164541 39 216 5.0 19.0 0.00 0.38 0.00 53 1017.1
20200219163115 39 194 7.0 22.0 0.00 0.38 0.00 53 1017.1
20200219161556 40 220 7.0 18.0 0.00 0.38 0.00 56 1017.3
20200219160036 40 197 8.0 17.0 0.00 0.38 0.00 58 1017.3
20200219154620 41 206 6.0 24.0 0.00 0.38 0.00 54 1017.2
20200219153126 41 15 13.0 25.0 0.00 0.38 0.00 54 1017.0
20200219151519 40 205 9.0 17.0 0.00 0.38 0.00 59 1017.1
20200219150004 40 184 6.0 17.0 0.00 0.38 0.00 60 1016.9
20200219144804 40 253 7.0 18.0 0.00 0.38 0.00 63 1017.0
20200219143157 40 279 8.0 18.0 0.00 0.38 0.00 64 1016.9
20200219141647 39 186 6.0 20.0 0.00 0.38 0.00 71 1016.9
20200219140147 38 157 5.0 14.0 0.00 0.38 0.00 73 1016.7
20200219134718 38 174 2.0 10.0 0.00 0.38 0.00 76 1016.5
20200219133049 36 224 5.0 11.0 0.00 0.38 0.00 78 1016.3
20200219131605 35 190 2.0 10.0 0.00 0.38 0.00 86 1016.2
20200219130044 34 182 3.0 11.0 0.00 0.38 0.00 89 1015.9
20200219124549 34 208 2.0 6.0 0.00 0.38 0.00 91 1015.5
20200219123053 34 0.0 0.0 0.00 0.38 0.00 91 1015.5
20200219121519 34 0.0 0.0 0.00 0.38 0.00 92 1015.5
20200219120022 34 0.0 0.0 0.00 0.38 0.00 93 1015.2
20200219114502 34 0.0 0.0 0.00 0.38 0.00 94 1014.9
20200219113127 34 0.0 0.0 0.00 0.38 0.00 94 1014.7
20200219111615 35 0.0 0.0 0.00 0.38 0.00 95 1014.3
20200219110121 35 0.0 0.0 0.00 0.38 0.00 95 1014.1
20200219104608 35 0.0 0.0 0.00 0.38 0.00 95 1014.3
20200219103110 35 0.0 0.0 0.00 0.38 0.00 95 1014.2
20200219101554 35 0.0 0.0 0.00 0.38 0.00 95 1013.7
20200219100052 35 0.0 0.0 0.00 0.38 0.00 95 1013.8
20200219094540 35 0.0 0.0 0.00 0.38 0.00 95 1013.4
20200219093020 35 0.0 0.0 0.00 0.38 0.00 95 1013.2
20200219091505 35 0.0 0.0 0.00 0.38 0.00 95 1012.9
20200219090228 35 0.0 0.0 0.00 0.38 0.00 95 1012.9
20200219084621 35 0.0 0.0 0.00 0.38 0.00 95 1012.9
20200219083056 34 0.0 0.0 0.00 0.38 0.00 95 1012.6
20200219081712 33 0.0 0.0 0.00 0.38 0.00 95 1012.3